Tracking 28790 objects as of 18-Apr-2024
HD Live streaming from Space Station
objects crossing your sky now

CZ-6A DEB

Track CZ-6A DEB now!
10-day predictions


NORAD ID: 55185
Int'l Code: 2022-151VA
Perigee: 628.2 km
Apogee: 786.9 km
Inclination: 98.7 °
Period: 98.8 minutes
Semi major axis: 7078 km
RCS: Unknown
Launch date: November 11, 2022
Source: People's Republic of China (PRC)
Launch site: Taiyaun Space Center, China (TSC)

Note: This is SATELLITE DEBRIS
Your satellite tracking list
Your tracking list is empty




NASA's NSSDC Master Catalog

Two Line Element Set (TLE):
1 55185U 22151VA  24108.31466276  .00051127  00000-0  10200-1 0  9995
2 55185  98.6685 137.9005 0112064 161.5235 199.0082 14.57765340 68993
Source of the keplerian elements: AFSPC